Weather History for KNRB - June, 2014

Change the Weather History Date:

Monday, June 9, 2014

  Actual Average Record
Temperature  
Mean Temperature 83 °F -  
Max Temperature 93 °F 84 °F 93 °F (2006)
Min Temperature 75 °F 72 °F 68 °F (2011)
Cooling Degree Days 18    
Growing Degree Days 33 (Base 50)    
Moisture  
Dew Point 71 °F    
Average Humidity 70    
Maximum Humidity 85    
Minimum Humidity 50    
Precipitation  
Precipitation 0.00 in - - ()
Sea Level Pressure  
Sea Level Pressure 29.94 in    
Wind  
Wind Speed 8 mph (SSW)    
Max Wind Speed 16 mph    
Max Gust Speed -    
Visibility 10 miles    
Events      
Averages and records for this station are not official NWS values.
T = Trace of Precipitation, MM = Missing Value Source: NWS Daily Summary

Daily Weather History Graph

Daily Weather History Graph

Search for Another Location

Airport or City:

Trip Planner

Search our weather history database for the weather conditions in past years. The results will help you decide how hot, cold, wet, or windy it might be!

Date:

Astronomy

Jun. 09, 2014 Rise Set
Actual Time 6:23 AM EDT 8:27 PM EDT
Civil Twilight 5:55 AM EDT 8:54 PM EDT
Nautical Twilight 5:22 AM EDT 9:27 PM EDT
Astronomical Twilight 4:46 AM EDT 10:03 PM EDT
Moon 4:59 PM EDT (6/9) 3:34 AM EDT (6/9)
Length of Visible Light 14h 58m
Length of Day
14h 03m
Waxing Gibbous, 85% of the Moon is Illuminated
Jun 9
Waxing Gibbous
Jun 13
Full
Jun 19
Last Quarter
Jun 27
New
Jul 5
First Quarter

Hourly Weather History & Observations

Time (EDT) Temp. Heat Index Dew Point Humidity Pressure Visibility Wind Dir Wind Speed Gust Speed Precip Events Conditions
12:52 AM 77.0 °F - 68.0 °F 74% 29.94 in 10.0 mi SW 8.1 mph - N/A   Clear
1:52 AM 77.0 °F - 69.1 °F 76% 29.94 in 10.0 mi WSW 6.9 mph - N/A   Clear
2:52 AM 75.9 °F - 66.9 °F 74% 29.91 in 10.0 mi WSW 6.9 mph - N/A   Clear
3:52 AM 75.9 °F - 69.1 °F 79% 29.89 in 10.0 mi WSW 5.8 mph - N/A   Clear
4:52 AM 75.9 °F - 70.0 °F 82% 29.88 in 10.0 mi WSW 5.8 mph - N/A   Clear
5:52 AM 75.9 °F - 71.1 °F 85% 29.90 in 10.0 mi WSW 6.9 mph - N/A   Clear
6:02 AM 75.9 °F - 71.1 °F 85% 29.91 in 10.0 mi West 9.2 mph - N/A   Scattered Clouds
6:52 AM 75.9 °F - 71.1 °F 85% 29.94 in 10.0 mi West 5.8 mph - N/A   Scattered Clouds
7:52 AM 78.1 °F - 72.0 °F 81% 29.95 in 10.0 mi West 8.1 mph - N/A   Mostly Cloudy
8:52 AM 80.1 °F 83.8 °F 72.0 °F 76% 29.97 in 10.0 mi West 8.1 mph - N/A   Mostly Cloudy
9:52 AM 84.0 °F 89.6 °F 72.0 °F 67% 29.97 in 10.0 mi Variable 4.6 mph - N/A   Mostly Cloudy
10:52 AM 86.0 °F 92.2 °F 72.0 °F 63% 29.97 in 10.0 mi Variable 5.8 mph - N/A   Mostly Cloudy
11:52 AM 88.0 °F 94.7 °F 72.0 °F 59% 29.98 in 10.0 mi WSW 9.2 mph - N/A   Mostly Cloudy
12:52 PM 90.0 °F 96.4 °F 71.1 °F 54% 29.97 in 10.0 mi WSW 8.1 mph - N/A   Mostly Cloudy
1:52 PM 91.0 °F 96.6 °F 70.0 °F 50% 29.96 in 10.0 mi Variable 4.6 mph - N/A   Scattered Clouds
2:52 PM 90.0 °F 99.0 °F 73.9 °F 59% 29.94 in 10.0 mi East 10.4 mph - N/A   Scattered Clouds
3:52 PM 88.0 °F 96.5 °F 73.9 °F 63% 29.93 in 10.0 mi ESE 10.4 mph - N/A   Scattered Clouds
4:52 PM 87.1 °F 95.4 °F 73.9 °F 65% 29.92 in 10.0 mi SE 13.8 mph - N/A   Scattered Clouds
5:52 PM 86.0 °F 95.1 °F 75.0 °F 70% 29.93 in 10.0 mi SSE 16.1 mph - N/A   Scattered Clouds
6:52 PM 82.9 °F 89.4 °F 73.9 °F 74% 29.93 in 10.0 mi SSE 11.5 mph - N/A   Scattered Clouds
7:52 PM 82.9 °F 88.0 °F 72.0 °F 69% 29.94 in 10.0 mi SSE 11.5 mph - N/A   Mostly Cloudy
8:52 PM 82.0 °F 86.7 °F 72.0 °F 71% 29.94 in 10.0 mi South 8.1 mph - N/A   Mostly Cloudy
9:52 PM 81.0 °F 82.7 °F 64.9 °F 58% 29.96 in 10.0 mi South 9.2 mph - N/A   Mostly Cloudy
10:52 PM 80.1 °F 82.3 °F 66.9 °F 64% 29.97 in 10.0 mi South 10.4 mph - N/A   Mostly Cloudy
11:52 PM 78.1 °F - 66.9 °F 68% 29.98 in 10.0 mi South 6.9 mph - N/A   Mostly Cloudy